| time (UTC) | temp C | wind direction | speed KPH | gust KPH | rain 1hr cm | rain 24hr cm | rain mn cm | humidity % | barometer mb |
| 20260503180507 | 15 | 260 | 17.7 | 25.7 | 0.00 | 0.00 | 0.00 | 76 | 1013.3 |
| 20260503180028 | 15 | 268 | 16.1 | 25.7 | 0.00 | 0.00 | 0.00 | 75 | 1013.3 |
| 20260503175508 | 16 | 271 | 17.7 | 25.7 | 0.00 | 0.00 | 0.00 | 75 | 1013.4 |
| 20260503175007 | 16 | 273 | 16.1 | 25.7 | 0.00 | 0.00 | 0.00 | 75 | 1013.3 |
| 20260503174525 | 16 | 268 | 19.3 | 25.7 | 0.00 | 0.00 | 0.00 | 77 | 1013.2 |
| 20260503174012 | 16 | 269 | 19.3 | 24.1 | 0.00 | 0.00 | 0.00 | 75 | 1013.3 |
| 20260503173508 | 16 | 252 | 14.5 | 22.5 | 0.00 | 0.00 | 0.00 | 76 | 1013.3 |
| 20260503173026 | 16 | 236 | 12.9 | 22.5 | 0.00 | 0.00 | 0.00 | 75 | 1013.2 |
| 20260503172509 | 16 | 235 | 11.3 | 22.5 | 0.00 | 0.00 | 0.00 | 77 | 1013.3 |
| 20260503172013 | 16 | 233 | 12.9 | 20.9 | 0.00 | 0.00 | 0.00 | 77 | 1013.3 |
| 20260503171522 | 15 | 253 | 11.3 | 22.5 | 0.00 | 0.00 | 0.00 | 76 | 1013.3 |
| 20260503171007 | 16 | 240 | 12.9 | 25.7 | 0.00 | 0.00 | 0.00 | 76 | 1013.3 |
| 20260503170507 | 16 | 231 | 17.7 | 25.7 | 0.00 | 0.00 | 0.00 | 77 | 1013.2 |
| 20260503151007 | 13 | 257 | 11.3 | 19.3 | 0.00 | 0.00 | 0.00 | 82 | 1012.8 |
| 20260503150508 | 13 | 242 | 11.3 | 19.3 | 0.00 | 0.00 | 0.00 | 83 | 1012.7 |
| 20260503131011 | 12 | 235 | 9.7 | 16.1 | 0.00 | 0.00 | 0.00 | 84 | 1011.2 |
| 20260503130506 | 12 | 235 | 9.7 | 19.3 | 0.00 | 0.00 | 0.00 | 84 | 1011.1 |
| 20260503110511 | 12 | 236 | 17.7 | 24.1 | 0.00 | 0.00 | 0.00 | 86 | 1011.2 |
| 20260503090511 | 12 | 284 | 16.1 | 22.5 | 0.00 | 0.00 | 0.00 | 82 | 1011.6 |
| 20260503081532 | 12 | 265 | 11.3 | 19.3 | 0.00 | 0.00 | 0.00 | 83 | 1011.9 |
| 20260503081010 | 13 | 240 | 12.9 | 19.3 | 0.00 | 0.00 | 0.00 | 83 | 1012.0 |
| 20260503080510 | 12 | 270 | 12.9 | 19.3 | 0.00 | 0.00 | 0.00 | 83 | 1012.1 |
| 20260503072505 | 13 | 270 | 16.1 | 24.1 | 0.00 | 0.00 | 0.00 | 83 | 1012.0 |
| 20260503072004 | 13 | 257 | 11.3 | 17.7 | 0.00 | 0.00 | 0.00 | 83 | 1012.1 |
| 20260503071511 | 13 | 261 | 12.9 | 19.3 | 0.00 | 0.00 | 0.00 | 83 | 1012.1 |
| 20260503071011 | 13 | 274 | 14.5 | 19.3 | 0.00 | 0.00 | 0.00 | 83 | 1012.0 |
| 20260503070511 | 13 | 280 | 12.9 | 19.3 | 0.00 | 0.00 | 0.00 | 83 | 1012.0 |
| 20260503055009 | 13 | 250 | 11.3 | 20.9 | 0.00 | 0.00 | 0.00 | 83 | 1012.5 |
| 20260503054510 | 13 | 251 | 14.5 | 22.5 | 0.00 | 0.00 | 0.00 | 83 | 1012.5 |
| 20260503054011 | 13 | 268 | 17.7 | 24.1 | 0.00 | 0.00 | 0.00 | 83 | 1012.4 |
| 20260503053506 | 13 | 273 | 17.7 | 24.1 | 0.00 | 0.00 | 0.00 | 82 | 1012.4 |
| 20260503053008 | 13 | 275 | 17.7 | 24.1 | 0.00 | 0.00 | 0.00 | 83 | 1012.5 |
| 20260503052507 | 13 | 273 | 14.5 | 24.1 | 0.00 | 0.00 | 0.00 | 82 | 1012.6 |
| 20260503052009 | 13 | 277 | 17.7 | 24.1 | 0.00 | 0.00 | 0.00 | 83 | 1012.5 |
| 20260503051524 | 13 | 289 | 17.7 | 22.5 | 0.00 | 0.00 | 0.00 | 83 | 1012.5 |
| 20260503051004 | 13 | 267 | 17.7 | 22.5 | 0.00 | 0.00 | 0.00 | 83 | 1012.6 |
| 20260503050506 | 13 | 277 | 16.1 | 22.5 | 0.00 | 0.00 | 0.00 | 83 | 1012.5 |
| 20260503050011 | 13 | 254 | 16.1 | 22.5 | 0.00 | 0.00 | 0.00 | 83 | 1012.5 |
| 20260503045508 | 13 | 268 | 16.1 | 22.5 | 0.00 | 0.00 | 0.00 | 83 | 1012.5 |
| 20260503045012 | 13 | 281 | 14.5 | 24.1 | 0.00 | 0.00 | 0.00 | 82 | 1012.5 |
| 20260503044517 | 13 | 271 | 12.9 | 24.1 | 0.00 | 0.00 | 0.00 | 82 | 1012.5 |
| 20260503044009 | 13 | 284 | 12.9 | 19.3 | 0.00 | 0.00 | 0.00 | 82 | 1012.5 |
| 20260503043505 | 13 | 286 | 16.1 | 19.3 | 0.00 | 0.00 | 0.00 | 82 | 1012.4 |
| 20260503043004 | 13 | 282 | 14.5 | 20.9 | 0.00 | 0.00 | 0.00 | 82 | 1012.5 |
| 20260503042506 | 13 | 266 | 16.1 | 20.9 | 0.00 | 0.00 | 0.00 | 82 | 1012.5 |
| 20260503042005 | 13 | 273 | 14.5 | 20.9 | 0.00 | 0.00 | 0.00 | 82 | 1012.4 |
| 20260503041507 | 13 | 277 | 16.1 | 24.1 | 0.00 | 0.00 | 0.00 | 82 | 1012.4 |
| 20260503041003 | 13 | 259 | 17.7 | 24.1 | 0.00 | 0.00 | 0.00 | 82 | 1012.5 |
| 20260503040507 | 13 | 290 | 14.5 | 20.9 | 0.00 | 0.00 | 0.00 | 82 | 1012.4 |
| 20260503040011 | 13 | 271 | 14.5 | 24.1 | 0.00 | 0.00 | 0.00 | 81 | 1012.4 |
| 20260503035503 | 13 | 286 | 16.1 | 24.1 | 0.00 | 0.00 | 0.00 | 82 | 1012.2 |
| 20260503035004 | 13 | 277 | 19.3 | 24.1 | 0.00 | 0.00 | 0.00 | 82 | 1012.2 |
| 20260503034508 | 14 | 288 | 17.7 | 24.1 | 0.00 | 0.00 | 0.00 | 82 | 1012.2 |
| 20260503034006 | 14 | 283 | 17.7 | 25.7 | 0.00 | 0.00 | 0.00 | 81 | 1012.1 |
| 20260503033503 | 14 | 284 | 19.3 | 25.7 | 0.00 | 0.00 | 0.00 | 81 | 1012.1 |
| 20260503033004 | 14 | 277 | 20.9 | 25.7 | 0.00 | 0.00 | 0.00 | 81 | 1011.9 |
| 20260503032506 | 14 | 288 | 17.7 | 22.5 | 0.00 | 0.00 | 0.00 | 81 | 1011.8 |
| 20260503032003 | 14 | 282 | 17.7 | 22.5 | 0.00 | 0.00 | 0.00 | 81 | 1011.8 |
| 20260503031505 | 14 | 286 | 14.5 | 22.5 | 0.00 | 0.00 | 0.00 | 80 | 1011.7 |
| 20260503031004 | 14 | 286 | 19.3 | 22.5 | 0.00 | 0.00 | 0.00 | 80 | 1011.7 |
| 20260503030505 | 14 | 271 | 16.1 | 25.7 | 0.00 | 0.00 | 0.00 | 80 | 1011.6 |
| 20260503030003 | 14 | 267 | 17.7 | 25.7 | 0.00 | 0.00 | 0.00 | 79 | 1011.6 |
| 20260503025503 | 14 | 273 | 19.3 | 24.1 | 0.00 | 0.00 | 0.00 | 79 | 1011.6 |
| 20260503025007 | 14 | 278 | 16.1 | 24.1 | 0.00 | 0.00 | 0.00 | 79 | 1011.7 |
| 20260503024513 | 14 | 286 | 17.7 | 25.7 | 0.00 | 0.00 | 0.00 | 79 | 1011.6 |
| 20260503024004 | 15 | 273 | 19.3 | 25.7 | 0.00 | 0.00 | 0.00 | 79 | 1011.6 |
| 20260503023505 | 15 | 284 | 19.3 | 25.7 | 0.00 | 0.00 | 0.00 | 79 | 1011.6 |
| 20260503023016 | 15 | 272 | 19.3 | 27.4 | 0.00 | 0.00 | 0.00 | 79 | 1011.6 |
| 20260503022503 | 15 | 257 | 19.3 | 29.0 | 0.00 | 0.00 | 0.00 | 79 | 1011.5 |
| 20260503022003 | 15 | 275 | 20.9 | 29.0 | 0.00 | 0.00 | 0.00 | 79 | 1011.5 |
| 20260503021503 | 15 | 266 | 22.5 | 27.4 | 0.00 | 0.00 | 0.00 | 78 | 1011.5 |
| 20260503021002 | 15 | 274 | 22.5 | 27.4 | 0.00 | 0.00 | 0.00 | 78 | 1011.5 |
| 20260503020504 | 15 | 292 | 20.9 | 27.4 | 0.00 | 0.00 | 0.00 | 78 | 1011.5 |
| 20260503020006 | 15 | 286 | 19.3 | 27.4 | 0.00 | 0.00 | 0.00 | 78 | 1011.5 |
| 20260503015504 | 15 | 284 | 20.9 | 25.7 | 0.00 | 0.00 | 0.00 | 77 | 1011.5 |
| 20260503015003 | 15 | 284 | 19.3 | 27.4 | 0.00 | 0.00 | 0.00 | 77 | 1011.5 |
| 20260503014505 | 15 | 281 | 20.9 | 27.4 | 0.00 | 0.00 | 0.00 | 76 | 1011.6 |
| 20260503014006 | 15 | 275 | 20.9 | 27.4 | 0.00 | 0.00 | 0.00 | 76 | 1011.6 |
| 20260503013503 | 16 | 290 | 19.3 | 25.7 | 0.00 | 0.00 | 0.00 | 75 | 1011.6 |
| 20260503013010 | 16 | 275 | 19.3 | 27.4 | 0.00 | 0.00 | 0.00 | 74 | 1011.7 |
| 20260503012502 | 16 | 261 | 16.1 | 27.4 | 0.00 | 0.00 | 0.00 | 74 | 1011.7 |
| 20260503012006 | 16 | 251 | 11.3 | 24.1 | 0.00 | 0.00 | 0.00 | 73 | 1011.7 |
| 20260503011518 | 16 | 265 | 12.9 | 24.1 | 0.00 | 0.00 | 0.00 | 73 | 1011.7 |
| 20260503011004 | 16 | 213 | 14.5 | 22.5 | 0.00 | 0.00 | 0.00 | 72 | 1011.7 |
| 20260503010509 | 16 | 252 | 12.9 | 22.5 | 0.00 | 0.00 | 0.00 | 71 | 1011.7 |
| 20260503010006 | 17 | 238 | 9.7 | 19.3 | 0.00 | 0.00 | 0.00 | 71 | 1011.6 |
| 20260503005504 | 17 | 202 | 9.7 | 19.3 | 0.00 | 0.00 | 0.00 | 71 | 1011.6 |
| 20260503005004 | 17 | 204 | 9.7 | 22.5 | 0.00 | 0.00 | 0.00 | 71 | 1011.5 |
| 20260503004506 | 17 | 248 | 12.9 | 22.5 | 0.00 | 0.00 | 0.00 | 70 | 1011.6 |
| 20260503004004 | 17 | 238 | 8.0 | 17.7 | 0.00 | 0.00 | 0.00 | 70 | 1011.6 |
| 20260503003504 | 17 | 223 | 8.0 | 19.3 | 0.00 | 0.00 | 0.00 | 69 | 1011.7 |
| 20260503003009 | 17 | 209 | 12.9 | 20.9 | 0.00 | 0.00 | 0.00 | 69 | 1011.7 |
| 20260503002504 | 17 | 223 | 11.3 | 20.9 | 0.00 | 0.00 | 0.00 | 70 | 1011.8 |
| 20260503002004 | 17 | 233 | 8.0 | 20.9 | 0.00 | 0.00 | 0.00 | 69 | 1011.7 |
| 20260503001508 | 17 | 229 | 8.0 | 20.9 | 0.00 | 0.00 | 0.00 | 69 | 1011.7 |
| 20260503001006 | 17 | 242 | 8.0 | 24.1 | 0.00 | 0.00 | 0.00 | 67 | 1011.7 |
| 20260503000507 | 17 | 198 | 9.7 | 24.1 | 0.00 | 0.00 | 0.00 | 67 | 1011.8 |
| 20260503000002 | 17 | 219 | 11.3 | 24.1 | 0.00 | 0.00 | 0.00 | 68 | 1011.8 |
| 20260502235503 | 17 | 186 | 11.3 | 24.1 | 0.00 | 0.00 | 0.00 | 68 | 1011.9 |
| 20260502235004 | 17 | 190 | 8.0 | 17.7 | 0.00 | 0.00 | 0.00 | 70 | 1011.9 |
| 20260502234504 | 17 | 227 | 6.4 | 19.3 | 0.00 | 0.00 | 0.00 | 68 | 1011.9 |
| 20260502234004 | 17 | 211 | 9.7 | 24.1 | 0.00 | 0.00 | 0.00 | 69 | 1011.8 |
| 20260502233504 | 17 | 234 | 9.7 | 30.6 | 0.00 | 0.00 | 0.00 | 68 | 1011.9 |
| 20260502233026 | 17 | 222 | 12.9 | 30.6 | 0.00 | 0.00 | 0.00 | 68 | 1012.1 |
| 20260502232505 | 17 | 193 | 11.3 | 24.1 | 0.00 | 0.00 | 0.00 | 68 | 1012.1 |
| 20260502232008 | 18 | 195 | 8.0 | 20.9 | 0.00 | 0.00 | 0.00 | 70 | 1012.1 |
| 20260502231513 | 18 | 215 | 9.7 | 20.9 | 0.00 | 0.00 | 0.00 | 68 | 1012.2 |
| 20260502231004 | 18 | 211 | 6.4 | 22.5 | 0.00 | 0.00 | 0.00 | 69 | 1012.0 |
| 20260502230504 | 18 | 217 | 8.0 | 22.5 | 0.00 | 0.00 | 0.00 | 69 | 1012.2 |
| 20260502230015 | 18 | 206 | 6.4 | 22.5 | 0.00 | 0.00 | 0.00 | 71 | 1012.3 |
| 20260502225508 | 17 | 207 | 8.0 | 25.7 | 0.00 | 0.00 | 0.00 | 71 | 1012.3 |
| 20260502225003 | 17 | 252 | 11.3 | 25.7 | 0.00 | 0.00 | 0.00 | 72 | 1012.5 |
| 20260502224509 | 17 | 238 | 11.3 | 24.1 | 0.00 | 0.00 | 0.00 | 71 | 1012.7 |
| 20260502224011 | 16 | 220 | 11.3 | 24.1 | 0.00 | 0.00 | 0.00 | 71 | 1012.8 |
| 20260502223507 | 17 | 241 | 11.3 | 25.7 | 0.00 | 0.00 | 0.00 | 70 | 1013.0 |
| 20260502223009 | 17 | 188 | 9.7 | 25.7 | 0.00 | 0.00 | 0.00 | 69 | 1013.0 |
| 20260502222504 | 18 | 175 | 8.0 | 22.5 | 0.00 | 0.00 | 0.00 | 71 | 1013.1 |
| 20260502222007 | 18 | 169 | 9.7 | 25.7 | 0.00 | 0.00 | 0.00 | 71 | 1013.1 |
| 20260502221514 | 17 | 192 | 11.3 | 25.7 | 0.00 | 0.00 | 0.00 | 71 | 1013.2 |
| 20260502221004 | 17 | 196 | 11.3 | 27.4 | 0.00 | 0.00 | 0.00 | 70 | 1013.2 |
| 20260502220508 | 17 | 186 | 14.5 | 27.4 | 0.00 | 0.00 | 0.00 | 68 | 1013.3 |
| 20260502220020 | 18 | 240 | 9.7 | 27.4 | 0.00 | 0.00 | 0.00 | 69 | 1013.3 |
| 20260502215506 | 17 | 234 | 12.9 | 32.2 | 0.00 | 0.00 | 0.00 | 69 | 1013.3 |
| 20260502215004 | 18 | 203 | 9.7 | 32.2 | 0.00 | 0.00 | 0.00 | 67 | 1013.2 |
| 20260502214519 | 18 | 141 | 11.3 | 27.4 | 0.00 | 0.00 | 0.00 | 67 | 1013.3 |
| 20260502214012 | 18 | 205 | 9.7 | 32.2 | 0.00 | 0.00 | 0.00 | 67 | 1013.2 |
| 20260502213504 | 18 | 192 | 11.3 | 32.2 | 0.00 | 0.00 | 0.00 | 66 | 1013.2 |
| 20260502213016 | 18 | 179 | 11.3 | 24.1 | 0.00 | 0.00 | 0.00 | 67 | 1013.3 |
| 20260502212507 | 18 | 207 | 8.0 | 27.4 | 0.00 | 0.00 | 0.00 | 67 | 1013.3 |
| 20260502212006 | 18 | 219 | 11.3 | 29.0 | 0.00 | 0.00 | 0.00 | 69 | 1013.3 |
| 20260502211513 | 18 | 167 | 11.3 | 29.0 | 0.00 | 0.00 | 0.00 | 67 | 1013.4 |
| 20260502211006 | 18 | 219 | 11.3 | 27.4 | 0.00 | 0.00 | 0.00 | 66 | 1013.4 |
| 20260502210505 | 19 | 174 | 11.3 | 24.1 | 0.00 | 0.00 | 0.00 | 66 | 1013.4 |
| 20260502210012 | 18 | 223 | 11.3 | 25.7 | 0.00 | 0.00 | 0.00 | 69 | 1013.4 |
| 20260502205512 | 18 | 170 | 12.9 | 25.7 | 0.00 | 0.00 | 0.00 | 65 | 1013.5 |
| 20260502205007 | 18 | 192 | 11.3 | 27.4 | 0.00 | 0.00 | 0.00 | 68 | 1013.5 |
| 20260502204516 | 19 | 235 | 12.9 | 27.4 | 0.00 | 0.00 | 0.00 | 69 | 1013.5 |
| 20260502204006 | 18 | 188 | 9.7 | 27.4 | 0.00 | 0.00 | 0.00 | 70 | 1013.6 |
| 20260502203511 | 18 | 219 | 12.9 | 30.6 | 0.00 | 0.00 | 0.00 | 67 | 1013.7 |
| 20260502203021 | 18 | 203 | 17.7 | 30.6 | 0.00 | 0.00 | 0.00 | 68 | 1013.6 |
| 20260502202504 | 18 | 236 | 14.5 | 32.2 | 0.00 | 0.00 | 0.00 | 67 | 1013.7 |
| 20260502202008 | 19 | 177 | 12.9 | 32.2 | 0.00 | 0.00 | 0.00 | 68 | 1013.7 |
| 20260502201522 | 18 | 196 | 11.3 | 24.1 | 0.00 | 0.00 | 0.00 | 70 | 1013.7 |
| 20260502201008 | 18 | 80 | 11.3 | 25.7 | 0.00 | 0.00 | 0.00 | 69 | 1013.7 |
| 20260502200506 | 18 | 215 | 12.9 | 25.7 | 0.00 | 0.00 | 0.00 | 71 | 1013.7 |
| 20260502200020 | 18 | 203 | 6.4 | 25.7 | 0.00 | 0.00 | 0.00 | 72 | 1013.7 |
| 20260502195507 | 17 | 191 | 9.7 | 32.2 | 0.00 | 0.00 | 0.00 | 74 | 1013.7 |
| 20260502195005 | 17 | 217 | 14.5 | 32.2 | 0.00 | 0.00 | 0.00 | 75 | 1013.8 |
| 20260502194527 | 16 | 195 | 11.3 | 29.0 | 0.00 | 0.00 | 0.00 | 76 | 1013.8 |
| 20260502194007 | 16 | 234 | 16.1 | 22.5 | 0.00 | 0.00 | 0.00 | 75 | 1013.9 |
| 20260502193507 | 16 | 234 | 12.9 | 24.1 | 0.00 | 0.00 | 0.00 | 74 | 1013.9 |
| 20260502193014 | 16 | 232 | 11.3 | 27.4 | 0.00 | 0.00 | 0.00 | 75 | 1013.8 |
| 20260502192509 | 16 | 194 | 9.7 | 27.4 | 0.00 | 0.00 | 0.00 | 76 | 1013.8 |
| 20260502192006 | 16 | 208 | 8.0 | 27.4 | 0.00 | 0.00 | 0.00 | 77 | 1014.0 |
| 20260502191523 | 16 | 223 | 12.9 | 29.0 | 0.00 | 0.00 | 0.00 | 76 | 1013.9 |
| 20260502191006 | 16 | 225 | 16.1 | 29.0 | 0.00 | 0.00 | 0.00 | 75 | 1013.9 |
| 20260502190509 | 16 | 225 | 6.4 | 25.7 | 0.00 | 0.00 | 0.00 | 77 | 1013.9 |
| 20260502190033 | 16 | 208 | 12.9 | 25.7 | 0.00 | 0.00 | 0.00 | 77 | 1013.9 |
| 20260502185505 | 15 | 168 | 9.7 | 32.2 | 0.00 | 0.00 | 0.00 | 78 | 1014.0 |
| 20260502185009 | 15 | 242 | 11.3 | 32.2 | 0.00 | 0.00 | 0.00 | 78 | 1013.9 |
| 20260502184525 | 15 | 192 | 11.3 | 30.6 | 0.00 | 0.00 | 0.00 | 78 | 1014.0 |
| 20260502184014 | 15 | 196 | 14.5 | 30.6 | 0.00 | 0.00 | 0.00 | 79 | 1014.0 |
| 20260502183507 | 15 | 196 | 12.9 | 29.0 | 0.00 | 0.00 | 0.00 | 79 | 1014.0 |
| 20260502183014 | 15 | 235 | 12.9 | 29.0 | 0.00 | 0.00 | 0.00 | 79 | 1014.0 |
| 20260502182508 | 15 | 204 | 11.3 | 30.6 | 0.00 | 0.00 | 0.00 | 79 | 1014.0 |
| 20260502182008 | 15 | 191 | 14.5 | 30.6 | 0.00 | 0.00 | 0.00 | 80 | 1013.9 |
| 20260502181527 | 14 | 198 | 12.9 | 30.6 | 0.00 | 0.00 | 0.00 | 81 | 1013.9 |
| 20260502181009 | 13 | 259 | 14.5 | 25.7 | 0.00 | 0.00 | 0.00 | 81 | 1014.0 |